This is the latest recevied weather packets stored in our database for station/object N2PUI. If no packets are shown the sender has not sent any weather packets the latest 10 day(s).
| Time | Temp. | Humidity | Pressure | Rain* | Wind** | Luminosity | Snow |
|---|---|---|---|---|---|---|---|
| 1777916096 | 20.56° C | 40% | 1008.2 hPa | 0 mm | - | 927 W/m² | - |
| 1777915794 | 20.56° C | 40% | 1008.3 hPa | 0 mm | - | 895 W/m² | - |
| 1777915489 | 20° C | 41% | 1008.3 hPa | 0 mm | - | 831 W/m² | - |
| 1777915186 | 20° C | 42% | 1008.4 hPa | 0 mm | - | 820 W/m² | - |
| 1777914883 | 20° C | 40% | 1008.3 hPa | 0 mm | - | 779 W/m² | - |
| 1777914580 | 20° C | 41% | 1008.1 hPa | 0 mm | - | 780 W/m² | - |
| 1777914276 | 19.44° C | 42% | 1008.6 hPa | 0 mm | - | 807 W/m² | - |
| 1777913973 | 20° C | 41% | 1008.5 hPa | 0 mm | - | 793 W/m² | - |
| 1777913670 | 19.44° C | 41% | 1008.3 hPa | 0 mm | - | 779 W/m² | - |
| 1777913367 | 20° C | 42% | 1008.5 hPa | 0 mm | - | 753 W/m² | - |
| 1777913063 | 18.89° C | 43% | 1008.8 hPa | 0 mm | - | 755 W/m² | - |
| 1777912759 | 18.89° C | 42% | 1008.8 hPa | 0 mm | - | 764 W/m² | - |
| 1777912455 | 19.44° C | 42% | 1008.7 hPa | 0 mm | - | 768 W/m² | - |
| 1777912152 | 18.89° C | 44% | 1009 hPa | 0 mm | - | 757 W/m² | - |
| 1777911848 | 18.89° C | 43% | 1009 hPa | 0 mm | - | 774 W/m² | - |
| 1777911545 | 18.33° C | 43% | 1008.9 hPa | 0 mm | - | 772 W/m² | - |
| 1777911241 | 18.33° C | 43% | 1008.9 hPa | 0 mm | - | 773 W/m² | - |
| 1777910938 | 18.33° C | 42% | 1009.1 hPa | 0 mm | - | 787 W/m² | - |
| 1777910636 | 17.78° C | 42% | 1009.4 hPa | 0 mm | - | 792 W/m² | - |
| 1777910332 | 18.33° C | 43% | 1009.3 hPa | 0 mm | - | 814 W/m² | - |
| 1777910029 | 18.33° C | 42% | 1009.4 hPa | 0 mm | - | 789 W/m² | - |
| 1777909726 | 17.78° C | 42% | 1009.2 hPa | 0 mm | - | 811 W/m² | - |
| 1777909423 | 17.78° C | 44% | 1009.2 hPa | 0 mm | - | 789 W/m² | - |
| 1777909121 | 17.78° C | 44% | 1009.3 hPa | 0 mm | - | 781 W/m² | - |
| 1777908819 | 17.22° C | 43% | 1009.3 hPa | 0 mm | - | 771 W/m² | - |
* Rain latest hour (hover to see other rain measurements)
** Current wind speed in m/s (hover to see current wind gust speed)